Flag for Norway Weather past 2 weeks in Nærbø, Norway

Now
42 °F

Quite cool.


Feels Like: 39 °F
Forecast: 42 / 45 °F
Wind: 5 mph from South

Location: Obrestad

Current Time: Feb 27, 2015 at 6:07:29 PM

Latest Report: Feb 27, 2015 at 5:00 PM


Visibility: N/A

Pressure: 29.85 "Hg

Humidity: 86%

Dew point: 38 °F

Location of NærbøLocation

Historic Weather in Nærbø — Graph

°F

Nærbø temperature yesterday

Maximum temperature yesterday: 42 °F (at 7:00 PM)
Minimum temperature yesterday: 38 °F (at 10:00 PM)
Average temperature yesterday: 40 °F

Past Weeks' High & Low Weather Summary

 TemperatureHumidityPressure
High44 °F (Feb 18, 1:00 PM)97% (Feb 23, 12:00 AM)30.31 "Hg (Feb 23, 12:00 AM)
Low35 °F (Feb 21, 7:00 AM)61% (Feb 22, 7:00 AM)28.70 "Hg (Feb 23, 5:00 AM)
Average40 °F86%29.70 "Hg
* Reported Feb 12 4:00 PM — Feb 27 4:00 PM, Nærbø, Weather by CustomWeather, © 2015

Note: Actual official high and low records may vary slightly from our data, if they occured in-between our weather recording intervals... More about our weather records

Advertising

Nærbø weather history for previous 24 hours

 ConditionsComfort  
Time TempWeatherWind HumidityBarometerVisibility
4:00 PM
Fri, Feb 27
42 °FQuite cool.6 mph83%29.84 "HgN/A
3:00 PM42 °FQuite cool.6 mph81%29.83 "HgN/A
2:00 PM43 °FQuite cool.6 mph77%29.83 "HgN/A
1:00 PM43 °FQuite cool.7 mph76%29.82 "HgN/A
12:00 PM42 °FQuite cool.8 mph74%29.81 "HgN/A
11:00 AM42 °FQuite cool.8 mph74%29.79 "HgN/A
10:00 AM42 °FQuite cool.7 mph75%29.78 "HgN/A
9:00 AM41 °FQuite cool.7 mph76%29.77 "HgN/A
8:00 AM41 °FQuite cool.6 mph78%29.76 "HgN/A
7:00 AM39 °FChilly.5 mph89%29.74 "HgN/A
6:00 AM37 °FChilly.2 mph89%29.73 "HgN/A
5:00 AM41 °FQuite cool.3 mph87%29.71 "HgN/A
4:00 AM40 °FQuite cool.5 mph87%29.70 "HgN/A
2:00 AM41 °FQuite cool.3 mph90%29.68 "HgN/A
1:00 AM39 °FChilly.2 mph95%29.67 "HgN/A
12:00 AM39 °FChilly.2 mph96%29.66 "HgN/A
11:00 PM
Thu, Feb 26
38 °FChilly.2 mph96%29.64 "HgN/A
10:00 PM38 °FChilly.2 mph96%29.62 "HgN/A
9:00 PM39 °FChilly.3 mph96%29.60 "HgN/A
8:00 PM40 °FQuite cool.6 mph96%29.59 "HgN/A
7:00 PM42 °FQuite cool.12 mph97%29.57 "HgN/A
6:00 PM42 °FQuite cool.15 mph96%29.55 "HgN/A
Weather by CustomWeather, © 2015

See weather overviewHow to use our weather pages